map of KTM home
Great Circle Mapper logo
KTM - Airport
Location
City:  Kathmandu, Nepal
Name:Tribhuvan International Airport
Old (Alt.):Gauchar Airport
ICAO:VNKT
IATA:KTM

Details
Type:Airport (Aerodrome, Airfield)
Use:Public/Civil, International (customs port of entry)
Latitude:27°41'48"N (27.696583)
Longitude:85°21'33"E (85.359100)
Datum:WGS 1984
Elevation:4390 ft (1338 m)
Variation:0.43°E (WMM2015 magnetic declination)
0.05° annual change
Runways:1
Longest:10007 × 148 ft (3050 × 45 m), paved

Time
Time Zone:UTC+5:45
Local Time:

Weather
METAR:VNKT 270120Z VRB02KT 7000 VCRA FEW008 FEW025CB SCT030 BKN100 20/19 Q1016 NOSIG CB TO NE AND N

Related Locations
Nearby:
Farthest:SCFX: 11544 mi / 18579 km
Isla San Félix, Desventuradas Islands, VS, CL

Find:

   beyond  
but within

Other Information
Maps:
NOTAMs:
Links:
Sources:

  
flag of Nepal   

Sectional Chart

Flight Planning
at skyvector.com

Satellite Image

Google Maps Satellite view

 

Copyright © 2004-2016 Karl L. Swartz. All rights reserved.
The Great Circle Mapper name and logo are trademarks of the Great Circle Mapper.
All other trademarks mentioned herein belong to their respective owners.
Please see credits for attibutions and further copyright information.

  Follow gcmap on Facebook Follow gcmap on Twitter Follow gcmap on Google+ GCmap on LinkedIn

hCard Microformat

Geo Microformat